Rexburg, ID

3:10 PM MST on February 24, 2017 (GMT -0700)
Rexburg-Madison County

Weather History for KRXE - February, 2012

Change the Weather History Date:

Thursday, February 2, 2012

  Actual Average Record
Temperature  
Mean Temperature 31 °F 20 °F  
Max Temperature 39 °F 29 °F 39 °F (2003)
Min Temperature 22 °F 10 °F -21 °F (2011)
Degree Days  
Heating Degree Days 34 45  
Month to date heating degree days 75 90  
Since 1 July heating degree days 4399 4867  
Cooling Degree Days 0 0  
Month to date cooling degree days 0 0  
Year to date cooling degree days 0 0  
Moisture  
Dew Point 27 °F    
Average Humidity 77    
Maximum Humidity 100    
Minimum Humidity 54    
Precipitation  
Precipitation 0.02 in 0.03 in 0.12 in (1989)
Month to date precipitation 0.02 0.05  
Year to date precipitation 1.15 0.79  
Sea Level Pressure  
Sea Level Pressure 30.19 in    
Wind  
Wind Speed 4 mph (West)    
Max Wind Speed 14 mph    
Max Gust Speed 18 mph    
Visibility 7 miles    
Events Snow    
T = Trace of Precipitation, MM = Missing Value Source: NWS Daily Summary

Daily Weather History Graph

Daily Weather History Graph

Search for Another Location

Airport or City:

Trip Planner

Search our weather history database for the weather conditions in past years. The results will help you decide how hot, cold, wet, or windy it might be!

Date:

Astronomy

Feb. 02, 2012 Rise Set
Actual Time 7:43 AM MST 5:38 PM MST
Civil Twilight 7:13 AM MST 6:09 PM MST
Nautical Twilight 6:38 AM MST 6:43 PM MST
Astronomical Twilight 6:04 AM MST 7:17 PM MST
Moon 12:49 PM MST (2/2) 3:33 AM MST (2/2)
Length of Visible Light 10h 56m
Length of Day
9h 55m
Waxing Gibbous, 74% of the Moon is Illuminated
Feb 2
Waxing Gibbous
Feb 7
Full
Feb 14
Last Quarter
Feb 21
New
Feb 29
First Quarter

Hourly Weather History & Observations

Time (MST) Temp. Windchill Dew Point Humidity Pressure Visibility Wind Dir Wind Speed Gust Speed Precip Events Conditions
12:05 AM 32.0 °F 26.4 °F 30.2 °F 93% 30.09 in 10.0 mi SSW 5.8 mph - N/A   Overcast
12:41 AM 32.0 °F 27.5 °F 30.2 °F 93% 30.10 in 10.0 mi SSW 4.6 mph - N/A   Overcast
12:53 AM 32.0 °F 27.5 °F 30.0 °F 92% 30.16 in 10.0 mi SSW 4.6 mph - N/A   Overcast
1:12 AM 32.0 °F 27.5 °F 28.4 °F 87% 30.10 in 10.0 mi SW 4.6 mph - N/A   Overcast
1:49 AM 30.2 °F - 30.2 °F 100% 30.10 in 10.0 mi Calm Calm - N/A   Overcast
1:53 AM 30.9 °F 27.5 °F 30.0 °F 96% 30.16 in 10.0 mi SSW 3.5 mph - N/A   Overcast
2:20 AM 30.2 °F 26.7 °F 30.2 °F 100% 30.11 in 4.0 mi SW 3.5 mph - 0.00 in Snow Light Snow
2:30 AM 30.2 °F 26.7 °F 28.4 °F 93% 30.11 in 3.0 mi SW 3.5 mph - 0.00 in Snow Light Snow
2:35 AM 30.2 °F 26.7 °F 28.4 °F 93% 30.11 in 2.5 mi SW 3.5 mph - 0.00 in Snow Light Snow
2:53 AM 30.9 °F - 28.9 °F 92% 30.17 in 2.0 mi Calm Calm - 0.00 in Snow Light Snow
3:08 AM 30.2 °F 26.7 °F 28.4 °F 93% 30.11 in 3.0 mi WSW 3.5 mph - 0.00 in Snow Light Snow
3:36 AM 30.2 °F - 28.4 °F 93% 30.11 in 4.0 mi Calm Calm - 0.00 in Snow Light Snow
3:53 AM 30.0 °F - 28.9 °F 96% 30.17 in 4.0 mi Calm Calm - 0.00 in Snow Light Snow
4:50 AM 30.2 °F - 28.4 °F 93% 30.12 in 6.0 mi Calm Calm - 0.00 in   Overcast
4:53 AM 30.0 °F - 28.9 °F 96% 30.18 in 7.0 mi Calm Calm - 0.00 in   Overcast
5:53 AM 30.0 °F - 28.9 °F 96% 30.20 in 10.0 mi Calm Calm - N/A   Overcast
6:41 AM 30.2 °F - 28.4 °F 93% 30.14 in 5.0 mi Calm Calm - 0.00 in Snow Light Snow
6:50 AM 30.2 °F - 28.4 °F 93% 30.15 in 2.0 mi Calm Calm - 0.00 in Snow Light Snow
6:53 AM 30.0 °F - 28.9 °F 96% 30.22 in 1.5 mi Calm Calm - 0.00 in Snow Light Snow
7:10 AM 30.2 °F - 28.4 °F 93% 30.16 in 2.5 mi Calm Calm - 0.01 in Snow Light Snow
7:21 AM 28.4 °F - 28.4 °F 100% 30.16 in 1.8 mi Calm Calm - 0.01 in Snow Light Snow
7:23 AM 28.4 °F - 28.4 °F 100% 30.16 in 2.0 mi Calm Calm - 0.01 in Snow Light Snow
7:53 AM 28.0 °F - 27.0 °F 96% 30.25 in 2.0 mi Calm Calm - 0.01 in Snow Light Snow
8:05 AM 28.4 °F - 28.4 °F 100% 30.17 in 5.0 mi Calm Calm - 0.00 in Snow Light Snow
8:26 AM 28.4 °F - 26.6 °F 93% 30.18 in 6.0 mi Calm Calm - 0.01 in Snow Light Snow
8:48 AM 28.4 °F - 28.4 °F 100% 30.19 in 4.0 mi Calm Calm - 0.01 in Snow Light Snow
8:53 AM 28.0 °F - 27.0 °F 96% 30.27 in 4.0 mi Calm Calm - 0.01 in Snow Light Snow
9:53 AM 28.9 °F - 27.0 °F 92% 30.28 in 7.0 mi Calm Calm - 0.00 in   Overcast
10:24 AM 30.2 °F - 28.4 °F 93% 30.20 in 7.0 mi Calm Calm - N/A   Overcast
10:31 AM 30.2 °F - 28.4 °F 93% 30.20 in 7.0 mi Calm Calm - N/A   Overcast
10:53 AM 32.0 °F - 28.9 °F 88% 30.27 in 9.0 mi Calm Calm - N/A   Partly Cloudy
11:53 AM 33.1 °F - 28.9 °F 85% 30.26 in 10.0 mi Calm Calm - N/A   Clear
12:53 PM 36.0 °F 31.1 °F 24.1 °F 62% 30.23 in 10.0 mi North 5.8 mph - N/A   Clear
1:53 PM 37.9 °F 32.1 °F 23.0 °F 55% 30.21 in 10.0 mi North 8.1 mph - N/A   Clear
2:53 PM 37.9 °F 30.9 °F 23.0 °F 55% 30.20 in 10.0 mi North 10.4 mph - N/A   Clear
3:53 PM 37.9 °F 32.1 °F 23.0 °F 55% 30.21 in 10.0 mi North 8.1 mph - N/A   Mostly Cloudy
4:53 PM 35.1 °F 28.6 °F 21.9 °F 59% 30.22 in 10.0 mi North 8.1 mph - N/A   Overcast
5:53 PM 34.0 °F 31.0 °F 21.9 °F 61% 30.24 in 10.0 mi North 3.5 mph - N/A   Overcast
6:53 PM 32.0 °F 24.2 °F 21.0 °F 64% 30.26 in 10.0 mi North 9.2 mph - N/A   Overcast
7:53 PM 30.0 °F 23.2 °F 21.0 °F 69% 30.29 in 10.0 mi North 6.9 mph - N/A   Overcast
8:53 PM 30.0 °F 21.7 °F 19.9 °F 66% 30.30 in 10.0 mi NNE 9.2 mph - N/A   Mostly Cloudy
9:53 PM 28.0 °F 20.8 °F 19.0 °F 69% 30.30 in 10.0 mi North 6.9 mph - N/A   Clear
10:53 PM 24.1 °F - 18.0 °F 77% 30.31 in 10.0 mi Calm Calm - N/A   Clear
11:53 PM 23.0 °F 17.0 °F 17.1 °F 78% 30.31 in 10.0 mi NNE 4.6 mph - N/A   Partly Cloudy